Вернуться в каталог

STARLINK-6065

АктивенСвязьVLEO
NORAD 56812·PAYLOAD·🇺🇸 United States

Запущен May 31, 2023 с Vandenberg Space Force Base

Loading…

Ближайшие Пролёты (ближайшие 24 часа)

TLE

СвежийSource: CelesTrak SupGP

Эпоха: Sep 14, 2026, 20:59 UTC

1 56812C 23078AX  26257.87479167  .00696320  00000+0  56186-1 0  2572
2 56812  70.0008 207.3334 0002977 267.7206 128.2741 14.99439466    17

Отслеживайте STARLINK-6065 в реальном времени с AllMySat

Download on the App Store